Regional Weather Roundup
Issued by NWS

Home | Current Version | Previous Version | Graphics & Text | Print | Product List | Glossary On
Versions: 1 2 3 4 5 6 7 8 9 10 11 12 13 14 15 16 17 18 19 20 21 22 23 24 25 26 27 28 29 30 31 32 33 34 35 36 37 38 39 40 41 42 43 44 45 46 47 48 49 50
000
ASUS43 KFSD 251110
RWRSD

WEATHER ROUNDUP FOR SOUTH DAKOTA
NATIONAL WEATHER SERVICE SIOUX FALLS SD
600 AM CDT MON MAY 25 2015

NOTE: "FAIR" INDICATES FEW OR NO CLOUDS BELOW 12,000 FEET WITH NO
SIGNIFICANT WEATHER AND/OR OBSTRUCTIONS TO VISIBILITY.


SDZ001>005-009-010-012>017-251200-
NORTHWEST AND NORTH CENTRAL SOUTH DAKOTA

CITY           SKY/WX    TMP DP  RH WIND       PRES   REMARKS
BUFFALO          N/A     52  50  93 N8        29.78S
FAITH            N/A     54  52  93 NE10      29.82R
MOBRIDGE       LGT RAIN  57  57 100 N6        29.78F FOG
$$

SDZ012>016-024>037-041>051-057-063-072>074-251200-
SOUTHWEST AND SOUTH CENTRAL SOUTH DAKOTA

CITY           SKY/WX    TMP DP  RH WIND       PRES   REMARKS
RAPID CTY ARPT CLOUDY    50  49  96 N3        29.83R
PIERRE         CLOUDY    56  56 100 NE6       29.76R FOG
CUSTER         MOCLDY    44  41  89 CALM      29.86S
ELLSWORTH AFB  CLOUDY    52  52 100 NW6       29.82
PHILIP         CLOUDY    55  54  96 N7        29.79R
PINE RIDGE     LGT RAIN  54  52  93 N9        29.79S
SPEARFISH      CLOUDY    48  48 100 W5        29.87R
WINNER         FOG       58  56  93 E5        29.76S VSB 1/4
$$

SDZ004>011-016>023-039-040-251200-
NORTHEAST SOUTH DAKOTA

CITY           SKY/WX    TMP DP  RH WIND       PRES   REMARKS
ABERDEEN       LGT RAIN  57  55  93 N9        29.76F FOG
WATERTOWN      LGT RAIN  56  55  97 N7        29.72F
BROOKINGS      CLOUDY    57  55  94 N7        29.72F
SISSETON         N/A     56  56 100 N13       29.72F
$$

SDZ017-020-022-023-036>040-048>070-251200-
SOUTHEAST SOUTH DAKOTA

CITY           SKY/WX    TMP DP  RH WIND       PRES   REMARKS
SIOUX FALLS    CLOUDY    59  57  93 NW3       29.72S
HURON          CLOUDY    57  56  96 N5        29.73F FOG
CHAMBERLAIN    CLOUDY    56  56 100 CALM      29.75S
MITCHELL       FOG       58  58 100 NW3       29.74R VSB 3/4
YANKTON        MOCLDY    59  57  94 W5        29.74R
$$

ABBREVIATIONS USED IN REMARKS
   TC - TEMPERATURE IN CELSIUS
  WCI - WIND CHILL INDEX
   HX - HEAT INDEX
  VSB - VISIBILITY



USA.gov is the U.S. government's official web portal to all federal, state and local government web resources and services.